Probability
0 0 0 0 0 0 0 0 0 0 0 1 4 8 10 11 13 15 17 20 22 24 26 23 19 19 19 19 18 19 17 13 10 9 7 5 3 1 0 0 0 0 0 0
0 0 0 0 0 0 0 0 0 0 0 1 3 7 10 11 14 15 15 17 19 20 22 20 17 18 19 19 18 18 16 12 11 10 7 5 3 1 0 0 0 0 0 0
0 0 0 0 0 0 0 0 0 0 0 2 5 7 9 11 13 13 12 13 14 15 18 17 16 17 17 18 18 18 15 13 12 11 8 4 2 1 0 0 0 0 0 0
0 0 0 0 0 0 0 0 1 0 1 4 8 10 9 9 9 9 10 10 11 13 15 16 16 16 16 16 16 15 14 14 14 13 9 4 1 0 0 0 0 0 0 0
0 0 0 0 1 1 1 0 0 0 1 5 10 11 8 6 5 7 9 10 11 13 14 14 14 15 14 12 12 11 11 12 14 12 8 4 1 0 0 0 0 0 0 0
0 0 0 0 1 2 1 0 0 1 3 7 10 9 6 6 7 8 9 10 11 12 12 11 11 12 11 8 7 6 7 8 9 8 5 3 1 0 0 0 0 0 0 0
0 0 0 0 1 1 1 0 0 3 6 7 7 7 7 8 8 9 9 9 10 10 10 10 10 9 7 5 4 4 4 4 4 2 1 1 1 0 0 0 0 0 0 0
0 0 0 0 1 2 1 0 1 4 6 6 6 8 9 10 9 10 10 10 9 9 9 9 9 8 5 4 3 3 2 2 1 1 1 1 1 0 0 0 0 0 0 0
0 0 0 1 3 3 2 0 1 3 4 5 6 8 10 12 12 12 12 11 10 10 9 7 7 6 4 3 2 2 2 2 2 2 2 2 1 0 0 0 0 0 0 0
0 0 1 2 3 2 1 1 1 3 4 5 6 7 9 12 14 14 13 11 9 9 8 5 4 3 2 1 1 1 1 1 1 2 2 2 1 0 0 0 0 0 0 0
0 0 1 2 1 0 0 1 2 4 5 5 5 5 8 11 12 12 11 8 6 5 4 2 1 1 1 0 0 0 0 0 0 1 1 1 0 0 0 0 0 0 0 0
0 0 1 1 0 0 0 2 3 4 5 5 4 5 8 10 9 8 7 4 2 1 1 0 0 0 0 0 0 0 0 0 0 0 0 0 0 0 0 0 0 0 0 0
0 0 1 1 1 0 0 2 3 3 2 4 5 6 7 7 6 5 3 1 1 0 0 0 0 0 0 0 0 0 0 0 0 0 0 0 0 0 0 0 0 0 0 0
0 0 2 2 1 1 0 1 1 1 1 2 5 6 5 4 3 2 1 0 0 0 0 0 0 0 0 0 0 0 0 0 0 0 0 0 0 0 0 0 0 0 0 0
0 0 1 2 2 2 1 0 0 0 0 1 4 4 3 1 1 0 0 0 0 0 0 0 0 0 0 0 0 0 0 0 0 0 0 0 0 0 0 0 0 0 0 0
0 0 0 1 1 1 1 0 0 1 1 1 2 1 0 0 0 0 0 0 0 0 0 0 0 0 0 0 0 0 0 0 0 0 0 0 0 0 0 0 0 0 0 0
0 0 0 0 1 1 1 1 1 2 2 2 1 0 0 0 0 0 0 0 0 0 0 0 0 0 0 0 0 0 0 0 0 0 0 0 0 0 0 0 0 0 0 0
0 0 1 1 2 2 2 2 3 3 2 1 0 0 0 0 0 0 0 0 0 0 0 0 0 0 0 0 0 0 0 0 0 0 0 0 0 0 0 0 0 0 0 0
0 0 0 1 2 2 2 2 2 2 1 0 0 0 0 0 0 0 0 0 0 0 0 0 0 0 0 0 0 0 0 0 0 0 0 0 0 0 0 0 0 0 0 0
0 0 0 0 1 1 1 1 1 1 0 0 0 0 0 0 0 0 0 0 0 0 0 0 0 0 0 0 0 0 0 0 0 0 0 0 0 0 0 0 0 0 0 0
0 0 0 0 0 0 0 0 0 0 0 0 0 0 0 0 0 0 0 0 0 0 0 0 0 0 0 0 0 0 0 0 0 0 0 0 0 0 0 0 0 0 0 0
0 0 0 0 0 0 0 0 0 0 0 0 0 0 0 0 0 0 0 0 0 0 0 0 0 0 0 0 0 0 0 0 0 0 0 0 0 0 0 0 0 0 0 0
0 0 0 0 0 0 0 0 0 0 0 0 0 0 0 0 0 0 0 0 0 0 0 0 0 0 0 0 0 0 0 0 0 0 0 0 0 0 0 0 0 0 0 0
0 0 0 0 0 0 0 0 0 0 0 0 0 0 0 0 0 0 0 0 0 0 0 0 0 0 0 0 0 0 0 0 0 0 0 0 0 0 0 0 0 0 0 0
0 0 0 0 0 0 0 0 0 0 0 0 0 0 0 0 0 0 0 0 0 0 0 0 0 0 0 0 0 0 0 0 0 0 0 0 0 0 0 0 0 0 0 0
0 0 0 0 0 0 0 0 0 0 0 0 0 0 0 0 0 0 0 0 0 0 0 0 0 0 0 0 0 0 0 0 0 0 0 0 0 0 0 0 0 0 0 0
0 0 0 0 0 0 0 0 0 0 0 0 0 0 0 0 0 0 0 0 0 0 0 0 0 0 0 0 0 0 0 0 0 0 0 0 0 0 0 0 0 0 0 0
Wind_Speed
3 2 3 3 5 6 5 8 9 8 8 8 7 5 4 4 4 5 5 5 5 5 5 4 4 4 5 5 4 5 5 5 4 3 3 3 2 2 1 1 2 2 1 1
0 0 2 2 2 5 4 4 4 3 6 5 3 4 4 5 6 6 5 6 6 6 6 5 4 4 4 5 4 5 5 4 3 3 3 3 2 2 2 1 1 1 1 0
1 1 3 1 3 4 3 3 6 7 7 4 4 6 7 7 6 6 6 6 6 6 5 5 4 4 4 4 4 4 4 3 3 3 3 2 2 2 1 1 1 2 1 1
3 3 3 5 2 2 3 2 3 3 3 5 5 4 3 4 6 6 5 5 5 5 5 4 4 4 4 5 5 4 4 3 2 2 2 2 2 2 2 2 2 2 1 1
4 3 1 2 1 1 2 2 2 2 3 4 7 5 2 1 4 5 6 5 5 5 5 5 5 4 5 5 4 4 3 3 2 2 3 3 2 2 2 2 2 2 2 2
5 4 5 6 2 1 2 2 2 3 6 8 7 4 3 3 5 6 6 6 6 6 6 6 4 3 5 4 4 3 3 2 3 3 3 2 2 2 2 2 2 3 3 3
4 3 5 4 3 1 5 6 2 3 5 7 4 4 5 7 6 6 7 7 7 7 6 5 4 5 6 5 3 2 3 4 4 3 3 3 3 2 2 3 3 3 4 4
4 3 6 3 1 4 4 1 1 3 4 4 5 7 8 8 8 8 8 7 7 8 7 5 5 6 6 5 3 4 4 5 5 4 4 4 4 4 3 3 4 3 4 4
6 6 3 2 1 2 1 1 1 3 4 7 8 8 8 8 9 8 8 7 6 8 8 7 6 6 7 5 4 6 6 6 6 6 6 5 5 4 4 3 3 3 3 4
1 2 2 1 1 2 0 1 2 4 6 7 8 9 9 9 9 8 7 7 7 9 9 7 6 7 6 5 5 7 7 6 6 7 7 7 5 5 4 4 4 4 4 4
1 2 1 2 1 1 2 3 4 4 5 7 10 10 10 9 9 8 7 6 7 8 8 7 7 7 6 6 6 8 7 7 7 7 7 7 7 7 6 6 4 4 4 4
4 4 3 2 1 0 2 3 5 6 6 7 8 10 10 9 8 9 8 7 8 8 8 7 7 7 6 5 6 7 7 6 5 5 6 6 6 8 14 11 13 12 9 7
3 2 2 1 1 1 3 4 6 8 9 9 9 10 11 10 9 9 9 9 8 8 8 8 8 8 6 6 6 7 7 6 5 5 5 5 5 6 6 9 13 14 12 11
2 3 2 0 1 3 6 7 8 9 9 10 10 11 11 11 10 10 9 8 8 8 8 8 8 7 5 6 7 8 7 8 7 5 5 5 5 5 5 6 6 6 8 10
1 2 3 4 4 6 7 8 9 9 10 10 11 12 12 12 11 9 8 8 9 9 8 7 8 6 5 6 7 7 6 5 5 5 5 5 5 5 6 6 5 5 5 6
2 4 6 7 6 6 8 8 9 8 10 11 11 12 12 12 11 9 8 8 9 8 7 7 6 5 4 6 7 6 6 9 7 5 5 5 5 5 5 5 5 5 5 4
5 5 7 7 7 7 7 8 9 9 10 11 11 12 12 12 11 10 8 8 8 8 6 6 5 4 5 6 6 5 5 6 9 6 5 5 4 5 5 5 4 4 4 5
3 5 6 8 8 9 9 10 10 11 10 11 12 12 11 11 10 9 8 8 9 8 7 5 5 5 6 6 5 5 5 5 5 5 4 5 4 4 4 5 5 5 4 5
6 7 7 8 8 9 10 10 10 10 11 12 12 11 10 10 9 9 8 8 8 7 4 4 6 7 6 6 7 5 5 6 5 5 5 6 5 5 4 5 5 4 4 4
8 9 9 9 9 10 11 11 11 11 10 11 12 12 11 9 9 9 9 8 4 3 3 5 6 6 6 6 7 5 6 6 6 5 5 5 5 5 5 5 5 4 4 4
9 10 10 10 11 11 11 11 12 11 10 10 11 11 10 9 8 8 8 7 4 4 5 7 6 5 5 6 7 6 6 6 5 5 5 5 5 5 5 5 4 4 4 4
9 10 11 11 11 11 9 9 11 12 11 10 10 10 10 9 9 8 7 4 3 5 5 5 5 7 7 7 6 6 6 6 5 5 4 4 4 4 4 4 4 4 4 4
9 10 11 11 12 11 10 10 10 10 10 10 10 9 9 7 6 6 5 2 3 6 5 5 7 10 10 7 5 6 6 6 5 5 4 4 4 4 4 4 3 3 3 3
9 10 10 10 11 12 11 9 9 9 9 9 8 8 8 7 5 4 4 6 8 8 6 6 9 10 8 5 5 5 5 5 5 5 5 4 4 4 4 4 3 3 3 3
10 10 11 11 10 9 9 10 10 10 9 7 7 7 6 5 6 5 5 7 8 8 6 7 9 9 6 5 5 5 4 4 4 4 4 4 4 4 3 3 3 3 3 2
9 8 7 7 7 7 7 7 7 6 7 7 6 5 6 6 7 6 6 7 8 7 6 4 5 6 5 5 5 4 4 4 4 4 4 3 4 4 3 3 3 2 2 2
9 8 7 7 6 6 6 7 7 6 6 7 7 5 6 6 6 6 7 6 6 5 5 5 4 4 5 5 5 4 4 3 4 4 3 3 3 3 2 2 2 2 1 1
Wind_Direction
210 211 157 157 166 164 164 172 175 212 215 234 220 197 178 160 146 133 128 124 124 125 121 125 129 131 133 135 135 141 141 153 172 175 161 149 149 153 158 180 206 208 206 255
50 101 138 119 165 176 182 175 190 191 236 244 189 143 148 154 151 143 137 132 128 126 126 131 134 133 130 127 127 131 137 143 141 136 138 142 142 143 150 172 176 113 94 69
199 293 86 233 226 186 179 183 173 198 224 177 168 173 176 170 159 152 148 144 140 133 130 131 127 122 128 120 114 118 120 119 122 130 129 144 139 131 146 157 119 96 83 65
127 108 186 237 264 202 165 201 223 226 205 180 176 150 136 154 155 148 138 132 126 125 121 113 109 104 106 107 116 121 117 112 113 118 113 113 105 112 115 102 102 96 69 50
120 141 239 281 285 102 157 255 267 198 156 128 117 86 60 117 141 144 135 128 122 117 111 102 98 110 113 109 113 109 107 106 102 102 107 112 109 112 117 108 97 79 60 58
122 138 202 233 250 278 134 275 274 181 164 152 132 141 203 147 124 119 113 112 112 107 98 94 90 110 114 111 108 107 107 105 93 91 104 118 124 116 105 102 94 80 62 53
134 165 248 255 291 111 159 233 242 170 167 157 159 175 141 124 117 114 110 105 106 103 96 92 96 106 107 102 96 91 90 90 85 84 93 100 93 87 91 95 88 79 69 54
140 160 242 292 28 174 207 251 139 137 146 138 125 117 119 122 120 115 108 102 102 98 88 79 84 95 92 82 77 84 87 86 83 77 79 84 88 81 79 93 94 85 76 63
177 201 240 276 239 267 203 174 167 139 133 134 130 129 125 120 115 109 105 101 100 103 93 75 70 88 92 76 78 83 82 80 80 78 72 71 80 82 78 78 85 82 78 70
189 265 284 314 346 350 346 163 131 137 139 134 132 130 122 119 117 109 101 102 101 99 92 80 69 70 80 81 84 87 84 78 78 81 74 64 59 60 67 64 73 79 76 68
202 269 336 343 331 333 66 93 105 108 122 134 132 129 124 120 115 109 102 95 95 95 92 85 76 71 68 76 89 89 86 83 80 79 81 74 66 58 63 53 59 80 78 74
211 214 190 240 287 11 112 117 124 118 105 106 119 120 116 113 109 107 103 98 93 92 91 83 80 73 62 66 87 97 92 86 84 85 84 85 86 74 58 62 60 61 64 74
220 204 198 217 34 74 107 111 116 117 119 113 108 113 114 109 104 102 100 97 96 95 92 87 80 72 61 63 77 86 92 91 86 86 87 87 86 90 84 63 56 54 55 64
197 144 131 149 105 97 105 103 102 101 103 108 110 108 107 103 99 98 97 98 97 94 88 86 82 72 61 70 81 83 87 89 88 84 85 85 84 82 84 85 73 53 44 52
245 162 151 127 108 105 106 108 105 106 109 109 110 110 109 107 101 97 96 98 94 88 82 81 81 71 62 78 86 86 88 89 86 84 81 82 82 82 81 81 80 72 61 49
121 121 125 125 125 126 121 121 120 119 117 114 110 108 107 104 100 96 92 95 95 89 83 82 77 69 72 83 86 84 89 98 93 89 85 84 83 86 86 83 79 72 64 54
140 143 140 138 136 132 127 124 122 120 116 114 111 109 108 106 102 96 89 86 88 85 80 80 75 70 76 82 89 90 89 95 93 89 85 84 85 88 90 89 84 77 66 52
162 153 144 140 137 130 122 119 119 118 116 114 112 110 109 111 110 106 101 95 87 74 59 60 71 78 79 83 88 92 93 91 90 91 89 86 85 85 87 87 85 81 70 58
117 117 116 117 122 124 122 120 119 115 114 115 114 111 109 109 108 107 101 93 89 80 52 57 81 83 84 90 92 91 95 96 93 89 91 92 89 85 85 87 85 81 76 67
108 110 111 111 113 117 117 116 115 113 114 116 114 111 107 106 108 105 95 82 69 77 80 83 85 83 84 89 92 91 94 96 95 92 89 89 88 86 83 84 84 81 75 72
115 113 113 113 110 109 112 115 115 113 112 113 114 115 112 107 105 103 100 90 54 64 82 85 84 84 85 90 90 92 92 93 93 92 93 93 91 88 85 83 81 78 75 73
117 116 114 112 109 105 103 106 110 111 109 107 108 111 109 105 99 89 80 93 99 92 86 81 82 87 91 90 89 91 92 93 93 92 92 94 96 95 90 88 84 81 80 78
116 115 114 113 111 108 103 103 107 110 110 111 112 112 110 105 104 108 99 79 94 97 92 89 98 96 91 87 88 90 91 92 92 93 94 94 96 97 96 92 88 87 84 82
111 109 111 112 112 110 107 104 103 103 104 103 105 112 113 106 85 74 100 105 102 101 96 101 102 98 92 90 91 89 89 91 93 94 94 92 92 93 94 95 92 87 87 87
108 111 113 115 114 112 111 109 104 103 101 97 94 93 96 104 109 106 101 102 103 99 96 97 98 97 93 93 93 93 93 94 99 102 101 102 102 101 98 95 94 93 91 83
103 105 106 107 111 115 116 113 110 110 110 104 94 91 93 94 100 101 98 99 99 97 94 92 94 94 92 92 93 94 94 98 98 98 105 107 107 106 104 99 95 93 92 87
98 99 100 97 96 105 111 114 116 114 115 117 110 103 105 104 102 102 101 99 97 93 90 87 89 91 93 92 90 88 89 92 96 97 98 99 102 106 112 113 107 102 98 92